| time (UTC) | temp F | wind direction | speed MPH | gust MPH | rain 1hr in | rain 24hr in | rain mn in | humidity % | barometer mb |
| 20260831080052 | 51 | 212 | 2.0 | 4.0 | 0.00 | 0.00 | 0.00 | 56 | 1015.8 |
| 20260831075530 | 51 | 0 | 0.0 | 2.0 | 0.00 | 0.00 | 0.00 | 57 | 1015.7 |
| 20260831075031 | 51 | 0 | 0.0 | 3.0 | 0.00 | 0.00 | 0.00 | 57 | 1015.8 |
| 20260831074604 | 51 | 212 | 1.0 | 3.0 | 0.00 | 0.00 | 0.00 | 57 | 1015.9 |
| 20260831074031 | 51 | 0 | 0.0 | 3.0 | 0.00 | 0.00 | 0.00 | 57 | 1015.9 |
| 20260831073532 | 51 | 0 | 0.0 | 4.0 | 0.00 | 0.00 | 0.00 | 56 | 1015.9 |
| 20260831073050 | 51 | 0 | 2.0 | 4.0 | 0.00 | 0.00 | 0.00 | 56 | 1016.0 |
| 20260831072536 | 51 | 212 | 3.0 | 4.0 | 0.00 | 0.00 | 0.00 | 56 | 1015.9 |
| 20260831072034 | 52 | 0 | 0.0 | 3.0 | 0.00 | 0.00 | 0.00 | 54 | 1015.9 |
| 20260831071555 | 52 | 0 | 0.0 | 3.0 | 0.00 | 0.00 | 0.00 | 55 | 1015.9 |
| 20260831071031 | 52 | 212 | 1.0 | 4.0 | 0.00 | 0.00 | 0.00 | 55 | 1016.1 |
| 20260831070531 | 52 | 212 | 1.0 | 5.0 | 0.00 | 0.00 | 0.00 | 55 | 1016.0 |
| 20260831070105 | 52 | 212 | 3.0 | 5.0 | 0.00 | 0.00 | 0.00 | 56 | 1015.9 |
| 20260831065535 | 52 | 212 | 1.0 | 5.0 | 0.00 | 0.00 | 0.00 | 56 | 1015.9 |
| 20260831065033 | 52 | 0 | 0.0 | 5.0 | 0.00 | 0.00 | 0.00 | 55 | 1015.9 |
| 20260831064557 | 52 | 212 | 2.0 | 5.0 | 0.00 | 0.00 | 0.00 | 56 | 1015.8 |
| 20260831064032 | 52 | 212 | 0.0 | 3.0 | 0.00 | 0.00 | 0.00 | 55 | 1015.9 |
| 20260831063534 | 52 | 0 | 0.0 | 5.0 | 0.00 | 0.00 | 0.00 | 55 | 1015.8 |
| 20260831063101 | 51 | 212 | 0.0 | 5.0 | 0.00 | 0.00 | 0.00 | 55 | 1015.7 |
| 20260831062535 | 51 | 212 | 4.0 | 5.0 | 0.00 | 0.00 | 0.00 | 57 | 1015.7 |
| 20260831062032 | 51 | 212 | 1.0 | 4.0 | 0.00 | 0.00 | 0.00 | 57 | 1015.8 |
| 20260831061601 | 50 | 0 | 0.0 | 0.0 | 0.00 | 0.00 | 0.00 | 56 | 1015.8 |
| 20260831061034 | 50 | 0 | 0.0 | 1.0 | 0.00 | 0.00 | 0.00 | 55 | 1015.8 |
| 20260831060535 | 50 | 0 | 0.0 | 1.0 | 0.00 | 0.00 | 0.00 | 55 | 1015.8 |
| 20260831060059 | 50 | 0 | 0.0 | 2.0 | 0.00 | 0.00 | 0.00 | 56 | 1015.9 |
| 20260831055536 | 50 | 0 | 0.0 | 2.0 | 0.00 | 0.00 | 0.00 | 54 | 1015.8 |
| 20260831055032 | 50 | 0 | 0.0 | 2.0 | 0.00 | 0.00 | 0.00 | 55 | 1015.9 |
| 20260831054557 | 51 | 0 | 0.0 | 0.0 | 0.00 | 0.00 | 0.00 | 54 | 1015.8 |
| 20260831054033 | 51 | 0 | 0.0 | 0.0 | 0.00 | 0.00 | 0.00 | 53 | 1015.7 |
| 20260831053534 | 51 | 0 | 0.0 | 0.0 | 0.00 | 0.00 | 0.00 | 53 | 1015.8 |
| 20260831053102 | 51 | 0 | 0.0 | 2.0 | 0.00 | 0.00 | 0.00 | 52 | 1015.9 |
| 20260831052533 | 51 | 0 | 0.0 | 2.0 | 0.00 | 0.00 | 0.00 | 52 | 1016.0 |
| 20260831052031 | 52 | 212 | 0.0 | 2.0 | 0.00 | 0.00 | 0.00 | 51 | 1015.9 |
| 20260831051555 | 52 | 0 | 0.0 | 2.0 | 0.00 | 0.00 | 0.00 | 51 | 1015.9 |
| 20260831051034 | 52 | 0 | 0.0 | 2.0 | 0.00 | 0.00 | 0.00 | 52 | 1015.9 |
| 20260831050533 | 52 | 0 | 0.0 | 5.0 | 0.00 | 0.00 | 0.00 | 51 | 1016.0 |
| 20260831050103 | 52 | 0 | 0.0 | 5.0 | 0.00 | 0.00 | 0.00 | 50 | 1015.9 |
| 20260831045531 | 52 | 212 | 2.0 | 4.0 | 0.00 | 0.00 | 0.00 | 51 | 1016.0 |
| 20260831045031 | 52 | 212 | 0.0 | 1.0 | 0.00 | 0.00 | 0.00 | 50 | 1016.0 |
| 20260831044603 | 52 | 0 | 0.0 | 0.0 | 0.00 | 0.00 | 0.00 | 50 | 1016.1 |
| 20260831044033 | 52 | 0 | 0.0 | 1.0 | 0.00 | 0.00 | 0.00 | 49 | 1016.0 |
| 20260831043532 | 53 | 0 | 0.0 | 1.0 | 0.00 | 0.00 | 0.00 | 48 | 1016.1 |
| 20260831043051 | 53 | 0 | 0.0 | 0.0 | 0.00 | 0.00 | 0.00 | 48 | 1016.1 |
| 20260831042534 | 53 | 0 | 0.0 | 0.0 | 0.00 | 0.00 | 0.00 | 48 | 1016.0 |
| 20260831042031 | 54 | 0 | 0.0 | 0.0 | 0.00 | 0.00 | 0.00 | 47 | 1016.0 |
| 20260831041641 | 54 | 0 | 0.0 | 2.0 | 0.00 | 0.00 | 0.00 | 47 | 1016.0 |
| 20260831041032 | 54 | 0 | 0.0 | 4.0 | 0.00 | 0.00 | 0.00 | 46 | 1016.0 |
| 20260831040530 | 55 | 0 | 1.0 | 4.0 | 0.00 | 0.00 | 0.00 | 46 | 1016.1 |
| 20260831035535 | 55 | 0 | 0.0 | 1.0 | 0.00 | 0.00 | 0.00 | 45 | 1016.2 |
| 20260831035035 | 56 | 0 | 0.0 | 2.0 | 0.00 | 0.00 | 0.00 | 44 | 1016.2 |
| 20260831034552 | 56 | 212 | 0.0 | 5.0 | 0.00 | 0.00 | 0.00 | 44 | 1016.2 |
| 20260831034032 | 57 | 0 | 1.0 | 5.0 | 0.00 | 0.00 | 0.00 | 43 | 1016.2 |
| 20260831033534 | 58 | 212 | 2.0 | 5.0 | 0.00 | 0.00 | 0.00 | 42 | 1016.2 |
| 20260831033052 | 59 | 0 | 0.0 | 1.0 | 0.00 | 0.00 | 0.00 | 41 | 1016.2 |
| 20260831032534 | 59 | 0 | 0.0 | 2.0 | 0.00 | 0.00 | 0.00 | 41 | 1016.3 |
| 20260831032038 | 60 | 212 | 0.0 | 3.0 | 0.00 | 0.00 | 0.00 | 40 | 1016.2 |
| 20260831031559 | 61 | 0 | 0.0 | 3.0 | 0.00 | 0.00 | 0.00 | 39 | 1016.2 |
| 20260831031036 | 62 | 0 | 0.0 | 0.0 | 0.00 | 0.00 | 0.00 | 38 | 1016.0 |
| 20260831030532 | 63 | 0 | 0.0 | 0.0 | 0.00 | 0.00 | 0.00 | 37 | 1016.0 |
| 20260831030100 | 63 | 0 | 0.0 | 0.0 | 0.00 | 0.00 | 0.00 | 37 | 1016.0 |
| 20260831025534 | 64 | 0 | 0.0 | 0.0 | 0.00 | 0.00 | 0.00 | 36 | 1015.9 |
| 20260831025035 | 65 | 0 | 0.0 | 0.0 | 0.00 | 0.00 | 0.00 | 35 | 1016.0 |
| 20260831024615 | 65 | 0 | 0.0 | 0.0 | 0.00 | 0.00 | 0.00 | 35 | 1015.9 |
| 20260831024035 | 66 | 0 | 0.0 | 2.0 | 0.00 | 0.00 | 0.00 | 34 | 1015.8 |
| 20260831023536 | 66 | 0 | 0.0 | 3.0 | 0.00 | 0.00 | 0.00 | 34 | 1015.8 |
| 20260831023056 | 67 | 212 | 0.0 | 4.0 | 0.00 | 0.00 | 0.00 | 33 | 1015.7 |
| 20260831022534 | 68 | 0 | 2.0 | 4.0 | 0.00 | 0.00 | 0.00 | 33 | 1015.8 |
| 20260831022035 | 69 | 212 | 1.0 | 3.0 | 0.00 | 0.00 | 0.00 | 32 | 1015.7 |
| 20260831021558 | 69 | 212 | 1.0 | 4.0 | 0.00 | 0.00 | 0.00 | 32 | 1015.8 |
| 20260831021035 | 70 | 0 | 1.0 | 4.0 | 0.00 | 0.00 | 0.00 | 32 | 1015.7 |
| 20260831020536 | 70 | 212 | 2.0 | 4.0 | 0.00 | 0.00 | 0.00 | 31 | 1015.6 |
| 20260831020053 | 71 | 212 | 2.0 | 4.0 | 0.00 | 0.00 | 0.00 | 32 | 1015.6 |
| 20260831015532 | 72 | 212 | 1.0 | 4.0 | 0.00 | 0.00 | 0.00 | 31 | 1015.7 |
| 20260831015034 | 72 | 0 | 0.0 | 7.0 | 0.00 | 0.00 | 0.00 | 31 | 1015.6 |
| 20260831014551 | 72 | 212 | 3.0 | 7.0 | 0.00 | 0.00 | 0.00 | 30 | 1015.6 |
| 20260831014034 | 72 | 212 | 5.0 | 7.0 | 0.00 | 0.00 | 0.00 | 30 | 1015.7 |
| 20260831013534 | 73 | 212 | 2.0 | 7.0 | 0.00 | 0.00 | 0.00 | 30 | 1015.7 |
| 20260831013105 | 73 | 212 | 4.0 | 7.0 | 0.00 | 0.00 | 0.00 | 30 | 1015.8 |
| 20260831012534 | 73 | 212 | 4.0 | 6.0 | 0.00 | 0.00 | 0.00 | 30 | 1015.8 |
| 20260831012034 | 73 | 212 | 3.0 | 8.0 | 0.00 | 0.00 | 0.00 | 28 | 1015.7 |
| 20260831011556 | 73 | 212 | 4.0 | 8.0 | 0.00 | 0.00 | 0.00 | 27 | 1015.7 |
| 20260831011031 | 73 | 212 | 6.0 | 8.0 | 0.00 | 0.00 | 0.00 | 27 | 1015.8 |
| 20260831010535 | 73 | 212 | 1.0 | 8.0 | 0.00 | 0.00 | 0.00 | 27 | 1015.7 |
| 20260831010116 | 73 | 212 | 2.0 | 11.0 | 0.00 | 0.00 | 0.00 | 27 | 1015.8 |
| 20260831005536 | 73 | 212 | 7.0 | 11.0 | 0.00 | 0.00 | 0.00 | 29 | 1015.8 |
| 20260831005038 | 73 | 212 | 6.0 | 10.0 | 0.00 | 0.00 | 0.00 | 28 | 1015.8 |
| 20260831004553 | 73 | 219 | 1.0 | 9.0 | 0.00 | 0.00 | 0.00 | 29 | 1015.8 |
| 20260831004035 | 73 | 219 | 6.0 | 9.0 | 0.00 | 0.00 | 0.00 | 30 | 1015.9 |
| 20260831003535 | 73 | 219 | 5.0 | 9.0 | 0.00 | 0.00 | 0.00 | 30 | 1016.0 |
| 20260831003059 | 73 | 220 | 1.0 | 11.0 | 0.00 | 0.00 | 0.00 | 30 | 1016.0 |
| 20260831002534 | 73 | 220 | 8.0 | 11.0 | 0.00 | 0.00 | 0.00 | 30 | 1016.1 |
| 20260831002034 | 73 | 219 | 4.0 | 12.0 | 0.00 | 0.00 | 0.00 | 30 | 1016.1 |
| 20260831001607 | 73 | 219 | 8.0 | 12.0 | 0.00 | 0.00 | 0.00 | 31 | 1016.1 |
| 20260831001038 | 72 | 213 | 5.0 | 11.0 | 0.00 | 0.00 | 0.00 | 32 | 1016.2 |
| 20260831000534 | 72 | 213 | 7.0 | 11.0 | 0.00 | 0.00 | 0.00 | 32 | 1016.2 |
| 20260831000113 | 73 | 213 | 4.0 | 11.0 | 0.00 | 0.00 | 0.00 | 30 | 1016.2 |
| 20260830235534 | 73 | 213 | 7.0 | 11.0 | 0.00 | 0.00 | 0.00 | 30 | 1016.2 |
| 20260830235030 | 72 | 220 | 3.0 | 14.0 | 0.00 | 0.00 | 0.00 | 31 | 1016.3 |
| 20260830234553 | 72 | 216 | 7.0 | 14.0 | 0.00 | 0.00 | 0.00 | 31 | 1016.4 |
| 20260830234035 | 72 | 216 | 6.0 | 13.0 | 0.00 | 0.00 | 0.00 | 31 | 1016.5 |
| 20260830233534 | 72 | 214 | 5.0 | 13.0 | 0.00 | 0.00 | 0.00 | 32 | 1016.6 |
| 20260830233049 | 72 | 211 | 7.0 | 12.0 | 0.00 | 0.00 | 0.00 | 32 | 1016.6 |
| 20260830232538 | 72 | 215 | 6.0 | 16.0 | 0.00 | 0.00 | 0.00 | 32 | 1016.7 |
| 20260830232032 | 72 | 208 | 9.0 | 16.0 | 0.00 | 0.00 | 0.00 | 31 | 1016.7 |
| 20260830231556 | 72 | 209 | 6.0 | 14.0 | 0.00 | 0.00 | 0.00 | 31 | 1016.7 |
| 20260830231036 | 71 | 211 | 5.0 | 12.0 | 0.00 | 0.00 | 0.00 | 31 | 1016.7 |
| 20260830230534 | 72 | 213 | 5.0 | 12.0 | 0.00 | 0.00 | 0.00 | 31 | 1016.7 |
| 20260830230058 | 71 | 206 | 1.0 | 15.0 | 0.00 | 0.00 | 0.00 | 31 | 1016.8 |
| 20260830225531 | 71 | 206 | 7.0 | 17.0 | 0.00 | 0.00 | 0.00 | 30 | 1016.9 |
| 20260830225031 | 71 | 226 | 7.0 | 18.0 | 0.00 | 0.00 | 0.00 | 32 | 1017.0 |
| 20260830224552 | 71 | 233 | 13.0 | 18.0 | 0.00 | 0.00 | 0.00 | 31 | 1017.0 |
| 20260830224032 | 71 | 212 | 9.0 | 16.0 | 0.00 | 0.00 | 0.00 | 31 | 1017.1 |
| 20260830223535 | 71 | 221 | 9.0 | 16.0 | 0.00 | 0.00 | 0.00 | 33 | 1017.1 |
| 20260830223131 | 70 | 198 | 6.0 | 17.0 | 0.00 | 0.00 | 0.00 | 34 | 1017.2 |
| 20260830222534 | 70 | 225 | 12.0 | 17.0 | 0.00 | 0.00 | 0.00 | 34 | 1017.4 |
| 20260830222034 | 70 | 237 | 11.0 | 18.0 | 0.00 | 0.00 | 0.00 | 33 | 1017.3 |
| 20260830221604 | 71 | 238 | 13.0 | 18.0 | 0.00 | 0.00 | 0.00 | 34 | 1017.4 |
| 20260830221036 | 70 | 186 | 7.0 | 19.0 | 0.00 | 0.00 | 0.00 | 35 | 1017.5 |
| 20260830220534 | 70 | 213 | 12.0 | 19.0 | 0.00 | 0.00 | 0.00 | 36 | 1017.5 |
| 20260830220054 | 70 | 235 | 11.0 | 21.0 | 0.00 | 0.00 | 0.00 | 35 | 1017.6 |
| 20260830215536 | 69 | 246 | 11.0 | 21.0 | 0.00 | 0.00 | 0.00 | 36 | 1017.6 |
| 20260830215033 | 70 | 221 | 12.0 | 21.0 | 0.00 | 0.00 | 0.00 | 36 | 1017.7 |
| 20260830214600 | 70 | 253 | 10.0 | 20.0 | 0.00 | 0.00 | 0.00 | 37 | 1017.8 |
| 20260830214037 | 70 | 231 | 11.0 | 19.0 | 0.00 | 0.00 | 0.00 | 37 | 1017.8 |
| 20260830213534 | 69 | 238 | 5.0 | 20.0 | 0.00 | 0.00 | 0.00 | 38 | 1017.8 |
| 20260830213053 | 69 | 206 | 11.0 | 20.0 | 0.00 | 0.00 | 0.00 | 39 | 1018.0 |
| 20260830212534 | 69 | 210 | 10.0 | 25.0 | 0.00 | 0.00 | 0.00 | 37 | 1018.0 |
| 20260830212034 | 70 | 234 | 11.0 | 25.0 | 0.00 | 0.00 | 0.00 | 36 | 1018.0 |
| 20260830211555 | 70 | 229 | 8.0 | 21.0 | 0.00 | 0.00 | 0.00 | 36 | 1018.1 |
| 20260830211036 | 69 | 197 | 11.0 | 21.0 | 0.00 | 0.00 | 0.00 | 36 | 1018.1 |
| 20260830210535 | 69 | 220 | 10.0 | 21.0 | 0.00 | 0.00 | 0.00 | 37 | 1018.2 |
| 20260830205534 | 69 | 226 | 14.0 | 21.0 | 0.00 | 0.00 | 0.00 | 37 | 1018.3 |
| 20260830205034 | 68 | 227 | 11.0 | 22.0 | 0.00 | 0.00 | 0.00 | 39 | 1018.2 |
| 20260830204549 | 69 | 203 | 14.0 | 22.0 | 0.00 | 0.00 | 0.00 | 37 | 1018.3 |
| 20260830204034 | 68 | 219 | 11.0 | 22.0 | 0.00 | 0.00 | 0.00 | 38 | 1018.3 |
| 20260830203531 | 68 | 226 | 12.0 | 19.0 | 0.00 | 0.00 | 0.00 | 38 | 1018.3 |
| 20260830203055 | 68 | 165 | 11.0 | 19.0 | 0.00 | 0.00 | 0.00 | 39 | 1018.4 |
| 20260830202530 | 68 | 215 | 11.0 | 23.0 | 0.00 | 0.00 | 0.00 | 40 | 1018.4 |
| 20260830202030 | 67 | 231 | 15.0 | 23.0 | 0.00 | 0.00 | 0.00 | 40 | 1018.5 |
| 20260830201554 | 67 | 207 | 13.0 | 23.0 | 0.00 | 0.00 | 0.00 | 40 | 1018.5 |
| 20260830201034 | 67 | 198 | 15.0 | 24.0 | 0.00 | 0.00 | 0.00 | 39 | 1018.5 |
| 20260830200531 | 67 | 185 | 11.0 | 24.0 | 0.00 | 0.00 | 0.00 | 39 | 1018.6 |
| 20260830200052 | 67 | 166 | 15.0 | 23.0 | 0.00 | 0.00 | 0.00 | 40 | 1018.6 |
| 20260830195537 | 67 | 207 | 18.0 | 26.0 | 0.00 | 0.00 | 0.00 | 40 | 1018.7 |
| 20260830195033 | 67 | 217 | 14.0 | 27.0 | 0.00 | 0.00 | 0.00 | 39 | 1018.8 |
| 20260830194607 | 67 | 179 | 11.0 | 27.0 | 0.00 | 0.00 | 0.00 | 40 | 1018.8 |
| 20260830194037 | 67 | 211 | 13.0 | 26.0 | 0.00 | 0.00 | 0.00 | 39 | 1018.9 |
| 20260830193530 | 66 | 237 | 14.0 | 26.0 | 0.00 | 0.00 | 0.00 | 40 | 1018.9 |
| 20260830193102 | 67 | 221 | 14.0 | 26.0 | 0.00 | 0.00 | 0.00 | 40 | 1018.9 |
| 20260830192534 | 66 | 225 | 14.0 | 26.0 | 0.00 | 0.00 | 0.00 | 42 | 1018.9 |
| 20260830192038 | 66 | 234 | 13.0 | 22.0 | 0.00 | 0.00 | 0.00 | 42 | 1018.8 |
| 20260830191551 | 66 | 223 | 11.0 | 19.0 | 0.00 | 0.00 | 0.00 | 41 | 1018.9 |
| 20260830191034 | 66 | 190 | 14.0 | 21.0 | 0.00 | 0.00 | 0.00 | 41 | 1019.1 |
| 20260830190534 | 66 | 198 | 14.0 | 21.0 | 0.00 | 0.00 | 0.00 | 41 | 1019.1 |
| 20260830190105 | 66 | 200 | 9.0 | 22.0 | 0.00 | 0.00 | 0.00 | 42 | 1019.1 |
| 20260830185534 | 66 | 213 | 11.0 | 22.0 | 0.00 | 0.00 | 0.00 | 44 | 1019.0 |
| 20260830185034 | 65 | 219 | 16.0 | 23.0 | 0.00 | 0.00 | 0.00 | 45 | 1019.1 |
| 20260830184611 | 66 | 220 | 13.0 | 23.0 | 0.00 | 0.00 | 0.00 | 44 | 1019.2 |
| 20260830184034 | 66 | 181 | 12.0 | 24.0 | 0.00 | 0.00 | 0.00 | 45 | 1019.2 |
| 20260830183537 | 65 | 201 | 15.0 | 24.0 | 0.00 | 0.00 | 0.00 | 45 | 1019.2 |
| 20260830183101 | 65 | 192 | 15.0 | 24.0 | 0.00 | 0.00 | 0.00 | 46 | 1019.2 |
| 20260830182535 | 65 | 178 | 14.0 | 22.0 | 0.00 | 0.00 | 0.00 | 43 | 1019.1 |
| 20260830182035 | 64 | 215 | 15.0 | 21.0 | 0.00 | 0.00 | 0.00 | 46 | 1019.2 |
| 20260830181551 | 64 | 196 | 16.0 | 22.0 | 0.00 | 0.00 | 0.00 | 46 | 1019.1 |
| 20260830181037 | 64 | 179 | 14.0 | 24.0 | 0.00 | 0.00 | 0.00 | 47 | 1019.3 |
| 20260830180534 | 64 | 192 | 15.0 | 24.0 | 0.00 | 0.00 | 0.00 | 47 | 1019.2 |
| 20260830180058 | 64 | 219 | 16.0 | 25.0 | 0.00 | 0.00 | 0.00 | 48 | 1019.2 |
| 20260830175534 | 64 | 189 | 14.0 | 25.0 | 0.00 | 0.00 | 0.00 | 48 | 1019.2 |
| 20260830175034 | 63 | 197 | 17.0 | 25.0 | 0.00 | 0.00 | 0.00 | 48 | 1019.2 |
| 20260830174552 | 63 | 190 | 17.0 | 25.0 | 0.00 | 0.00 | 0.00 | 48 | 1019.2 |
| 20260830174035 | 64 | 211 | 14.0 | 27.0 | 0.00 | 0.00 | 0.00 | 46 | 1019.1 |
| 20260830173535 | 64 | 212 | 16.0 | 27.0 | 0.00 | 0.00 | 0.00 | 47 | 1019.1 |
| 20260830173050 | 62 | 176 | 15.0 | 22.0 | 0.00 | 0.00 | 0.00 | 49 | 1019.2 |
| 20260830172534 | 63 | 180 | 13.0 | 23.0 | 0.00 | 0.00 | 0.00 | 48 | 1019.1 |
| 20260830172034 | 62 | 180 | 15.0 | 23.0 | 0.00 | 0.00 | 0.00 | 50 | 1019.2 |
| 20260830171612 | 62 | 202 | 14.0 | 20.0 | 0.00 | 0.00 | 0.00 | 52 | 1019.2 |
| 20260830171036 | 62 | 190 | 14.0 | 19.0 | 0.00 | 0.00 | 0.00 | 52 | 1019.3 |
| 20260830170533 | 62 | 212 | 11.0 | 21.0 | 0.00 | 0.00 | 0.00 | 52 | 1019.2 |
| 20260830170055 | 62 | 198 | 13.0 | 21.0 | 0.00 | 0.00 | 0.00 | 52 | 1019.1 |
| 20260830165534 | 62 | 198 | 15.0 | 22.0 | 0.00 | 0.00 | 0.00 | 53 | 1019.3 |
| 20260830165034 | 61 | 190 | 15.0 | 22.0 | 0.00 | 0.00 | 0.00 | 53 | 1019.3 |
| 20260830164603 | 61 | 178 | 15.0 | 23.0 | 0.00 | 0.00 | 0.00 | 54 | 1019.3 |
| 20260830164034 | 61 | 174 | 12.0 | 23.0 | 0.00 | 0.00 | 0.00 | 54 | 1019.4 |
| 20260830163534 | 60 | 146 | 14.0 | 23.0 | 0.00 | 0.00 | 0.00 | 55 | 1019.3 |
| 20260830163057 | 60 | 152 | 15.0 | 20.0 | 0.00 | 0.00 | 0.00 | 56 | 1019.2 |
| 20260830162533 | 60 | 173 | 13.0 | 19.0 | 0.00 | 0.00 | 0.00 | 55 | 1019.2 |
| 20260830162033 | 60 | 175 | 11.0 | 19.0 | 0.00 | 0.00 | 0.00 | 56 | 1019.2 |
| 20260830161554 | 59 | 175 | 14.0 | 21.0 | 0.00 | 0.00 | 0.00 | 57 | 1019.4 |
| 20260830161034 | 59 | 192 | 13.0 | 21.0 | 0.00 | 0.00 | 0.00 | 58 | 1019.5 |
| 20260830160532 | 59 | 188 | 15.0 | 20.0 | 0.00 | 0.00 | 0.00 | 59 | 1019.4 |
| 20260830160053 | 58 | 193 | 11.0 | 20.0 | 0.00 | 0.00 | 0.00 | 59 | 1019.4 |
| 20260830155534 | 59 | 169 | 10.0 | 18.0 | 0.00 | 0.00 | 0.00 | 59 | 1019.4 |
| 20260830155035 | 58 | 158 | 11.0 | 17.0 | 0.00 | 0.00 | 0.00 | 60 | 1019.3 |
| 20260830154600 | 58 | 185 | 10.0 | 17.0 | 0.00 | 0.00 | 0.00 | 61 | 1019.1 |
| 20260830154034 | 57 | 190 | 13.0 | 18.0 | 0.00 | 0.00 | 0.00 | 62 | 1019.2 |
| 20260830153534 | 57 | 159 | 11.0 | 20.0 | 0.00 | 0.00 | 0.00 | 63 | 1019.3 |
| 20260830153100 | 57 | 160 | 15.0 | 20.0 | 0.00 | 0.00 | 0.00 | 63 | 1019.2 |
| 20260830152536 | 57 | 173 | 12.0 | 19.0 | 0.00 | 0.00 | 0.00 | 63 | 1019.2 |
| 20260830152038 | 57 | 167 | 9.0 | 21.0 | 0.00 | 0.00 | 0.00 | 64 | 1019.1 |
| 20260830151600 | 56 | 186 | 9.0 | 21.0 | 0.00 | 0.00 | 0.00 | 65 | 1019.2 |
| 20260830151035 | 56 | 178 | 11.0 | 20.0 | 0.00 | 0.00 | 0.00 | 65 | 1019.0 |
| 20260830150536 | 55 | 165 | 11.0 | 20.0 | 0.00 | 0.00 | 0.00 | 66 | 1018.9 |
| 20260830150101 | 55 | 161 | 11.0 | 20.0 | 0.00 | 0.00 | 0.00 | 67 | 1019.0 |
| 20260830145534 | 54 | 160 | 13.0 | 19.0 | 0.00 | 0.00 | 0.00 | 67 | 1019.1 |
| 20260830145037 | 54 | 160 | 12.0 | 19.0 | 0.00 | 0.00 | 0.00 | 67 | 1019.1 |
| 20260830144551 | 54 | 160 | 13.0 | 21.0 | 0.00 | 0.00 | 0.00 | 68 | 1019.1 |
| 20260830144033 | 54 | 161 | 10.0 | 21.0 | 0.00 | 0.00 | 0.00 | 68 | 1019.0 |
| 20260830143531 | 53 | 159 | 10.0 | 16.0 | 0.00 | 0.00 | 0.00 | 69 | 1019.0 |
| 20260830143058 | 53 | 165 | 10.0 | 17.0 | 0.00 | 0.00 | 0.00 | 70 | 1018.9 |
| 20260830142535 | 52 | 165 | 10.0 | 17.0 | 0.00 | 0.00 | 0.00 | 70 | 1018.8 |
| 20260830142037 | 52 | 150 | 4.0 | 13.0 | 0.00 | 0.00 | 0.00 | 72 | 1018.9 |
| 20260830141551 | 51 | 150 | 3.0 | 9.0 | 0.00 | 0.00 | 0.00 | 73 | 1018.9 |
| 20260830141036 | 51 | 150 | 2.0 | 9.0 | 0.00 | 0.00 | 0.00 | 74 | 1019.0 |
| 20260830140534 | 50 | 150 | 4.0 | 8.0 | 0.00 | 0.00 | 0.00 | 73 | 1018.9 |
| 20260830140052 | 50 | 150 | 0.0 | 10.0 | 0.00 | 0.00 | 0.00 | 74 | 1018.9 |
| 20260830135538 | 50 | 0 | 2.0 | 10.0 | 0.00 | 0.00 | 0.00 | 73 | 1018.8 |
| 20260830135031 | 50 | 150 | 7.0 | 10.0 | 0.00 | 0.00 | 0.00 | 73 | 1018.8 |
| 20260830134550 | 50 | 150 | 6.0 | 10.0 | 0.00 | 0.00 | 0.00 | 73 | 1018.8 |
| 20260830134030 | 50 | 150 | 3.0 | 11.0 | 0.00 | 0.00 | 0.00 | 73 | 1018.7 |
| 20260830133535 | 51 | 150 | 1.0 | 12.0 | 0.00 | 0.00 | 0.00 | 72 | 1018.8 |
| 20260830133101 | 51 | 150 | 6.0 | 12.0 | 0.00 | 0.00 | 0.00 | 72 | 1018.6 |
| 20260830132536 | 51 | 150 | 5.0 | 11.0 | 0.00 | 0.00 | 0.00 | 73 | 1018.7 |
| 20260830132037 | 51 | 150 | 5.0 | 11.0 | 0.00 | 0.00 | 0.00 | 73 | 1018.6 |
| 20260830131554 | 51 | 150 | 3.0 | 8.0 | 0.00 | 0.00 | 0.00 | 73 | 1018.7 |
| 20260830131035 | 51 | 150 | 3.0 | 14.0 | 0.00 | 0.00 | 0.00 | 74 | 1018.6 |
| 20260830130535 | 50 | 150 | 6.0 | 14.0 | 0.00 | 0.00 | 0.00 | 74 | 1018.6 |
| 20260830130100 | 50 | 150 | 8.0 | 15.0 | 0.00 | 0.00 | 0.00 | 74 | 1018.5 |
| 20260830125535 | 50 | 150 | 9.0 | 15.0 | 0.00 | 0.00 | 0.00 | 74 | 1018.5 |
| 20260830125034 | 50 | 150 | 9.0 | 15.0 | 0.00 | 0.00 | 0.00 | 74 | 1018.5 |
| 20260830124558 | 50 | 150 | 9.0 | 13.0 | 0.00 | 0.00 | 0.00 | 74 | 1018.3 |
| 20260830124037 | 50 | 150 | 9.0 | 12.0 | 0.00 | 0.00 | 0.00 | 74 | 1018.4 |
| 20260830123535 | 50 | 150 | 8.0 | 14.0 | 0.00 | 0.00 | 0.00 | 74 | 1018.5 |
| 20260830123059 | 50 | 150 | 9.0 | 15.0 | 0.00 | 0.00 | 0.00 | 74 | 1018.4 |
| 20260830122531 | 50 | 150 | 10.0 | 16.0 | 0.00 | 0.00 | 0.00 | 74 | 1018.3 |
| 20260830122035 | 50 | 150 | 11.0 | 16.0 | 0.00 | 0.00 | 0.00 | 74 | 1018.3 |
| 20260830121556 | 50 | 150 | 12.0 | 16.0 | 0.00 | 0.00 | 0.00 | 74 | 1018.2 |
| 20260830121037 | 50 | 150 | 11.0 | 16.0 | 0.00 | 0.00 | 0.00 | 74 | 1018.1 |
| 20260830120534 | 50 | 152 | 12.0 | 15.0 | 0.00 | 0.00 | 0.00 | 74 | 1018.1 |
| 20260830115532 | 48 | 210 | 6.0 | 11.0 | 0.00 | 0.00 | 0.00 | 80 | 1018.3 |
| 20260830115030 | 46 | 0 | 1.0 | 4.0 | 0.00 | 0.00 | 0.00 | 80 | 1018.4 |
| 20260830114600 | 46 | 0 | 0.0 | 3.0 | 0.00 | 0.00 | 0.00 | 79 | 1018.4 |
| 20260830114035 | 45 | 0 | 0.0 | 0.0 | 0.00 | 0.00 | 0.00 | 79 | 1018.3 |
| 20260830113534 | 45 | 0 | 0.0 | 0.0 | 0.00 | 0.00 | 0.00 | 80 | 1018.2 |
| 20260830113054 | 45 | 0 | 0.0 | 0.0 | 0.00 | 0.00 | 0.00 | 79 | 1018.2 |
| 20260830112535 | 45 | 0 | 0.0 | 0.0 | 0.00 | 0.00 | 0.00 | 79 | 1018.2 |
| 20260830112035 | 45 | 0 | 0.0 | 0.0 | 0.00 | 0.00 | 0.00 | 79 | 1018.1 |
| 20260830111552 | 45 | 0 | 0.0 | 1.0 | 0.00 | 0.00 | 0.00 | 79 | 1018.2 |
| 20260830111035 | 45 | 0 | 0.0 | 1.0 | 0.00 | 0.00 | 0.00 | 79 | 1018.2 |
| 20260830110532 | 45 | 0 | 0.0 | 1.0 | 0.00 | 0.00 | 0.00 | 78 | 1018.2 |
| 20260830110059 | 45 | 0 | 0.0 | 2.0 | 0.00 | 0.00 | 0.00 | 78 | 1018.2 |
| 20260830105531 | 45 | 0 | 0.0 | 2.0 | 0.00 | 0.00 | 0.00 | 77 | 1018.1 |
| 20260830105035 | 46 | 0 | 0.0 | 3.0 | 0.00 | 0.00 | 0.00 | 77 | 1018.2 |
| 20260830104553 | 46 | 0 | 0.0 | 4.0 | 0.00 | 0.00 | 0.00 | 77 | 1018.2 |
| 20260830104035 | 46 | 0 | 1.0 | 4.0 | 0.00 | 0.00 | 0.00 | 77 | 1018.2 |
| 20260830103540 | 46 | 250 | 0.0 | 3.0 | 0.00 | 0.00 | 0.00 | 74 | 1018.1 |
| 20260830103052 | 47 | 0 | 0.0 | 0.0 | 0.00 | 0.00 | 0.00 | 75 | 1018.1 |
| 20260830102534 | 47 | 0 | 0.0 | 0.0 | 0.00 | 0.00 | 0.00 | 73 | 1018.1 |
| 20260830102034 | 47 | 0 | 0.0 | 0.0 | 0.00 | 0.00 | 0.00 | 73 | 1018.1 |
| 20260830101559 | 48 | 0 | 0.0 | 0.0 | 0.00 | 0.00 | 0.00 | 74 | 1018.0 |
| 20260830101036 | 48 | 0 | 0.0 | 0.0 | 0.00 | 0.00 | 0.00 | 74 | 1018.0 |
| 20260830100531 | 48 | 0 | 0.0 | 0.0 | 0.00 | 0.00 | 0.00 | 74 | 1017.9 |
| 20260830100101 | 48 | 0 | 0.0 | 0.0 | 0.00 | 0.00 | 0.00 | 74 | 1018.0 |
| 20260830095536 | 47 | 0 | 0.0 | 1.0 | 0.00 | 0.00 | 0.00 | 73 | 1017.9 |
| 20260830095036 | 48 | 0 | 0.0 | 1.0 | 0.00 | 0.00 | 0.00 | 73 | 1018.0 |
| 20260830094554 | 48 | 0 | 0.0 | 3.0 | 0.00 | 0.00 | 0.00 | 73 | 1018.0 |
| 20260830094034 | 48 | 0 | 0.0 | 3.0 | 0.00 | 0.00 | 0.00 | 71 | 1018.0 |
| 20260830093534 | 48 | 0 | 0.0 | 2.0 | 0.00 | 0.00 | 0.00 | 70 | 1017.9 |
| 20260830093057 | 48 | 0 | 0.0 | 2.0 | 0.00 | 0.00 | 0.00 | 70 | 1017.9 |
| 20260830092534 | 48 | 0 | 0.0 | 3.0 | 0.00 | 0.00 | 0.00 | 69 | 1017.9 |
| 20260830092034 | 49 | 0 | 0.0 | 3.0 | 0.00 | 0.00 | 0.00 | 69 | 1017.7 |
| 20260830091602 | 49 | 0 | 0.0 | 3.0 | 0.00 | 0.00 | 0.00 | 69 | 1017.7 |
| 20260830091035 | 49 | 250 | 0.0 | 3.0 | 0.00 | 0.00 | 0.00 | 68 | 1017.7 |
| 20260830090537 | 49 | 0 | 0.0 | 1.0 | 0.00 | 0.00 | 0.00 | 68 | 1017.6 |
| 20260830090059 | 49 | 0 | 0.0 | 2.0 | 0.00 | 0.00 | 0.00 | 67 | 1017.7 |
| 20260830085534 | 49 | 0 | 0.0 | 3.0 | 0.00 | 0.00 | 0.00 | 66 | 1017.6 |
| 20260830085034 | 50 | 250 | 1.0 | 3.0 | 0.00 | 0.00 | 0.00 | 66 | 1017.6 |
| 20260830084636 | 50 | 0 | 0.0 | 3.0 | 0.00 | 0.00 | 0.00 | 66 | 1017.7 |
| 20260830084036 | 50 | 0 | 0.0 | 3.0 | 0.00 | 0.00 | 0.00 | 65 | 1017.6 |
| 20260830083535 | 50 | 0 | 0.0 | 2.0 | 0.00 | 0.00 | 0.00 | 65 | 1017.6 |
| 20260830083101 | 51 | 0 | 0.0 | 2.0 | 0.00 | 0.00 | 0.00 | 64 | 1017.6 |
| 20260830082534 | 51 | 0 | 0.0 | 0.0 | 0.00 | 0.00 | 0.00 | 63 | 1017.5 |
| 20260830082035 | 51 | 0 | 0.0 | 7.0 | 0.00 | 0.00 | 0.00 | 63 | 1017.5 |
| 20260830081607 | 51 | 0 | 0.0 | 7.0 | 0.00 | 0.00 | 0.00 | 64 | 1017.5 |
| 20260830081035 | 51 | 250 | 3.0 | 7.0 | 0.00 | 0.00 | 0.00 | 65 | 1017.5 |
| 20260830080535 | 51 | 250 | 3.0 | 5.0 | 0.00 | 0.00 | 0.00 | 64 | 1017.5 |